STARLINK-31876, 59938

Orbit data source: Space-Track

STARLINK-31876, 59938 is a payload satellite owned by SpaceX/Seattle (US) in LEO that was launched on Sat, 01 Jun 2024 UTC via an FALCON 9 launch vehicle from the Air Force Eastern Test Range (AFETR). Payload-class satellites include a variety of spacecraft equipped with specific instruments for various scientific and technological missions. These include communications satellites like Starlink; space stations such as the ISS; scientific satellites like the Hubble; Earth observation satellites from companies like Planet Labs, Umbra, and HawkEye 360; GPS; miniature CubeSats for education and research; and military/defense satellites.

Loading next visibility...
Identifier
59938, 2024-106S
Orbit
LEO
Last TLE update
8 hours ago
Origin
Manufacturer
SpaceX/Seattle
Mission
Operational spacecraft
Bus & Motor
STARLINK V2M, Unknown motor
Mass
730 kg wet, ~700 kg dry
Launch date (UTC)
2024-06-01 (1 year ago)
Launch vehicle
FALCON 9
Launch site
Air Force Eastern Test Range (AFETR)
Object type
Payload
Rocket body
Debris
Shape & HBR
Unknown
Radar Cross Section
Large (>1 m²)

Expand to show TLE details & history

TLE from 8 hours ago
0 STARLINK-31876
1 59938U 24106S   25199.08208883  .00000308  00000-0  20703-4 0  9997
2 59938  42.9992 217.3712 0001122 279.3601  80.7123 15.27575922 63519
Epoch: 2025-07-18T01:58Z
TLE epoch observation values (Epoch: 2025-07-18T01:58:12.474Z)
Latitude
-0.00009°
Longitude
-108.31953°
Altitude
482.712 km
Speed
7.626 km/s
True Right ascension
14h 29m 29s
True Declination
0° 00' 00"
Sunlit
Object was in daylight at epoch
Visualization orbit readout
Latitude
26.34096°
Longitude
37.81757°
Altitude
483.7 km
Speed
7.627 km/s
Apparent Right ascension
03h 05m 08s
Apparent Declination
-28° 01' 16"
Sunlit
Object is in daylight
Visualization observer readout
Local Sidereal Time
23:10:56
Azimuth
131.053° SE
Elevation
2.97°
Doppler factor
1
Orbital elements
Apogee altitude
485.777 km
Perigee altitude
484.237 km
Semi-major axis
6,863.144 km
Eccentricity
0.00011
Inclination
42.9992°
RAAN
217.3712°
Arg. of periapsis
279.3601°
True anomaly
80.72499°
Mean anomaly
80.7123°
Eccentric anomaly
80.71864°
Mean motion
3.81732 °/min
Orbital period
94.31 mins
BSTAR
0.000020703
Loading maneuver chart data...
Loading SW <> Apogee altitude chart data...
Loading historical data...
Loading historical data...
Loading historical data...
Loading historical data...
Loading historical data...
Loading historical data...
Loading historical data...
|